User: anonymous   Login
Location: Bronschhofen
(47.4788°N, 9.0353°E)
Time: 17:31:58
(UTC+00:00)
Language:

SL-16 R/B - Orbit

View from above orbital plane
View from above orbital plane
View from above satellite
View from above satellite

Ground track
Ground track

The orbit data is extracted from the following two-line orbital elements,

1 31793U 07029B   22229.41022135  .00000222  00000-0  14054-3 0  9999
2 31793  70.9763  24.8032 0001908 254.8788 125.8268 14.14476878781576
Epoch (UTC): 17 August 2022 09:50:43
Eccentricity: 0.0001908
inclination: 70.9763°
perigee height: 843 km
apogee height: 845 km
right ascension of ascending node: 24.8032°
argument of perigee: 254.8788°
revolutions per day: 14.14476878
mean anomaly at epoch: 125.8268°
orbit number at epoch: 78157

The dashed part of the orbit path shows where the satellite is in the earth's shadow,  

DLR